Location: Bieujac
(44.5398°N, 0.1549°W)
Time: 10:03:26
(UTC+00:00)

ATLAS 2AS CENTAUR R/B - Pass Details

Date: 17 November 2019
Orbit: 926 x 1286 km, 63.7° (Epoch: 09 December)

Event Time Altitude Azimuth Distance (km) Brightness Sun altitude
Exits shadow 05:19:27 13° 323° (NW) 2,930 4.6 -17.7°
Maximum altitude 05:26:25 88° 233° (SW) 1,164 2.8 -16.5°
Drops below altitude 10° 05:33:25 10° 146° (SE) 2,922 5.6 -15.2°
Sets 05:35:57 0° 146° (SSE) 3,824 6.3 -14.8°
